Weather reports worldwide

Advertisment
Finisterre, Spain (8040): temperature & dewpoint: 14.10.2018 16:00:00 - 20.10.2018 16:00:00 (CEST)Finisterre, Spain (8040): wind speed & gusts: 14.10.2018 16:00:00 - 20.10.2018 16:00:00 (CEST)Finisterre, Spain (8040): wind direction: 14.10.2018 16:00:00 - 20.10.2018 16:00:00 (CEST)Finisterre, Spain (8040): reduced air pressure: 14.10.2018 16:00:00 - 20.10.2018 16:00:00 (CEST)Finisterre, Spain (8040): visibility: 14.10.2018 16:00:00 - 20.10.2018 16:00:00 (CEST)Finisterre, Spain (8040): sunshine duration: 14.10.2018 16:00:00 - 20.10.2018 16:00:00 (CEST)Finisterre, Spain (8040): precipitation: 14.10.2018 16:00:00 - 20.10.2018 16:00:00 (CEST)
Date & Time tt [°C] td [°C] ff [km/h] ff [kn] fx [km/h] fx [kn] dd ppp [hPa] vv [km] sd [min] rr [mm]
20.10.2018 16:00:00 - - - - - - - - - - -
20.10.2018 15:00:00 20,1 12,8 18 10 48 26 NE 1019,4 20 60 0,0
20.10.2018 14:00:00 19,2 12,6 20 11 49 26 NE 1020,8 13 57 -
20.10.2018 13:00:00 19,2 12,4 9 5 61 33 SE 1021,4 12 60 0,0
20.10.2018 12:00:00 17,5 11,3 34 18 56 30 ENE 1020,7 16 57 0,0
20.10.2018 11:00:00 16,5 11,0 13 7 56 30 E 1020,9 14 60 0,0
20.10.2018 10:00:00 16,1 10,2 41 22 73 40 E 1019,5 15 26 0,0
20.10.2018 09:00:00 16,0 10,0 45 24 66 36 E 1018,4 15 0 0,0
20.10.2018 08:00:00 15,0 10,8 16 9 56 31 ESE 1019,1 15 0 -
20.10.2018 07:00:00 15,1 10,6 13 7 37 20 E 1018,9 14 0 0,0
20.10.2018 06:00:00 14,7 10,9 13 7 27 14 E 1018,8 13 0 0,0
20.10.2018 05:00:00 15,0 11,6 8 4 56 31 WNW 1019,3 10 0 0,0
20.10.2018 04:00:00 15,2 11,8 33 18 66 36 ENE 1018,8 11 0 0,0
20.10.2018 03:00:00 15,2 12,1 30 16 68 37 E 1018,8 11 0 0,0
20.10.2018 02:00:00 15,3 12,2 40 21 79 43 ENE 1018,9 10 0 -
20.10.2018 01:00:00 15,3 12,4 43 23 72 39 ENE 1017,7 9 0 0,0
20.10.2018 00:00:00 15,0 12,6 34 18 63 34 ENE 1018,3 9 0 0,0
19.10.2018 23:00:00 15,6 12,3 20 11 56 30 ENE 1019,1 10 0 0,0
19.10.2018 22:00:00 15,8 12,7 30 16 63 34 ENE 1018,3 11 0 0,0
19.10.2018 21:00:00 15,5 13,2 11 6 42 23 ESE 1018,2 10 0 0,0
19.10.2018 20:00:00 - - - - - - - - - - -
19.10.2018 19:00:00 16,7 13,8 20 11 41 22 NE 1017,5 9 23 0,0
19.10.2018 18:00:00 17,5 14,0 8 4 50 27 NNE 1017,6 9 13 0,0
19.10.2018 17:00:00 17,9 14,2 22 12 54 29 NE 1017,1 9 58 0,0
19.10.2018 16:00:00 19,1 13,9 16 9 47 25 NE 1017,1 13 58 0,0
19.10.2018 15:00:00 18,2 14,5 23 13 47 26 NNE 1017,7 8 50 0,0
19.10.2018 14:00:00 18,5 14,1 24 13 56 30 NE 1018,2 11 56 -
19.10.2018 13:00:00 17,9 14,0 17 9 45 25 NE 1018,3 12 50 0,0
19.10.2018 12:00:00 17,5 14,0 11 6 58 32 E 1018,5 13 46 0,0
19.10.2018 11:00:00 16,5 13,9 15 8 36 19 NE 1018,2 12 40 0,0
19.10.2018 10:00:00 15,6 13,7 11 6 44 24 ENE 1017,8 8 23 0,0
19.10.2018 09:00:00 14,8 13,4 15 8 40 22 E 1017,5 6 0 0,0
19.10.2018 08:00:00 14,5 13,3 22 12 50 27 NE 1017,6 6 0 -
19.10.2018 07:00:00 14,6 13,4 26 14 49 26 NNE 1017,1 6 0 0,0
19.10.2018 06:00:00 14,6 13,0 28 15 48 26 NE 1016,7 8 0 0,0
19.10.2018 05:00:00 14,4 13,3 26 14 48 26 NE 1016,7 6 0 0,0
19.10.2018 04:00:00 14,5 13,6 38 21 67 36 NE 1017,5 4,5 0 0,0
19.10.2018 03:00:00 14,5 13,6 48 26 71 38 NNE 1017,2 4,0 0 0,0
19.10.2018 02:00:00 14,3 13,1 41 22 66 35 NE 1017,0 6 0 -
19.10.2018 01:00:00 14,4 13,2 44 24 71 38 NE 1017,2 7 0 0,0
19.10.2018 00:00:00 14,4 13,3 35 19 67 36 NE 1017,3 6 0 0,0
18.10.2018 23:00:00 14,6 13,7 45 24 70 38 NNE 1017,0 5 0 0,0
18.10.2018 22:00:00 14,4 13,7 49 27 67 36 NE 1016,3 3,1 0 0,0
18.10.2018 21:00:00 14,3 13,4 32 17 59 32 NNE 1016,6 3,8 0 0,0
18.10.2018 20:00:00 14,4 13,2 35 19 52 28 NE 1016,1 7 0 -
18.10.2018 19:00:00 14,6 13,2 31 17 55 30 NNE 1015,3 8 8 0,0
18.10.2018 18:00:00 14,9 13,0 29 15 62 34 NNE 1015,5 8 16 0,0
18.10.2018 17:00:00 15,5 13,0 35 19 54 29 NNE 1015,4 10 27 0,0
18.10.2018 16:00:00 16,7 12,8 31 17 68 37 NNE 1015,0 9 58 0,0
18.10.2018 15:00:00 17,1 12,6 35 19 62 34 NE 1015,2 14 59 0,0
18.10.2018 14:00:00 16,2 12,7 33 18 58 31 NE 1016,4 12 33 -
18.10.2018 13:00:00 15,1 12,6 32 18 56 30 NNE 1016,5 11 50 0,0
18.10.2018 12:00:00 15,4 12,8 27 14 60 33 NE 1016,8 10 56 0,0
18.10.2018 11:00:00 14,2 12,2 40 22 62 34 NE 1016,1 16 60 0,0
18.10.2018 10:00:00 13,8 12,0 44 24 77 42 ENE 1015,1 20 21 0,0
18.10.2018 09:00:00 13,7 12,4 42 23 74 40 ENE 1014,2 20 0 0,0
18.10.2018 08:00:00 13,7 12,7 42 23 67 36 NE 1013,8 19 0 -
18.10.2018 07:00:00 13,4 12,6 32 17 55 30 NE 1013,8 13 0 0,0
18.10.2018 06:00:00 13,3 12,5 37 20 60 33 NE 1013,3 9 0 0,0
18.10.2018 05:00:00 13,3 12,6 35 19 56 30 NE 1013,4 8 0 0,0
18.10.2018 04:00:00 13,1 12,4 31 17 52 28 NNE 1013,6 3,9 0 0,0
18.10.2018 03:00:00 12,9 12,3 36 19 59 32 NNE 1014,2 3,1 0 0,0
18.10.2018 02:00:00 12,6 12,0 39 21 63 34 NNE 1014,4 4,2 0 -
18.10.2018 01:00:00 12,2 11,6 40 22 70 38 NNE 1014,4 4,9 0 0,4
18.10.2018 00:00:00 12,2 11,6 39 21 68 37 NNE 1015,0 3,5 0 0,8
17.10.2018 23:00:00 12,1 11,4 42 23 78 42 NNE 1015,3 0,1 0 0,8
17.10.2018 22:00:00 11,7 11,1 41 22 71 39 NNE 1014,9 1,4 0 0,0
17.10.2018 21:00:00 11,9 11,3 50 27 82 44 NNE 1014,2 0,3 0 0,0
17.10.2018 20:00:00 12,6 12,0 35 19 62 33 N 1014,6 0,9 0 -
17.10.2018 19:00:00 12,1 11,4 34 18 60 33 N 1014,8 0,6 0 0,0
17.10.2018 18:00:00 12,4 11,8 37 20 58 31 NNE 1014,7 3,5 2 0,0
17.10.2018 17:00:00 12,6 12,0 36 20 57 31 N 1014,9 9 28 0,0
17.10.2018 16:00:00 12,6 12,0 39 21 59 32 NNE 1015,4 0,1 1 0,4
17.10.2018 15:00:00 12,2 11,6 42 23 63 34 N 1016,0 0,2 0 1,4
17.10.2018 14:00:00 12,5 11,7 29 16 48 26 N 1016,6 0,1 0 -
17.10.2018 13:00:00 13,0 12,1 5 3 9 5 W 1017,1 0,2 0 3,6
17.10.2018 12:00:00 12,7 11,8 13 7 20 11 W 1017,2 0,1 0 2,0
17.10.2018 11:00:00 13,2 11,9 9 5 18 10 S 1017,4 0,9 0 0,0
17.10.2018 10:00:00 13,2 11,4 7 4 10 5 SSE 1017,5 6 0 0,0
17.10.2018 09:00:00 13,2 10,9 6 3 10 5 SSE 1017,1 14 0 0,0
17.10.2018 08:00:00 13,4 10,9 6 4 15 8 E 1017,5 20 0 -
17.10.2018 07:00:00 13,0 10,9 11 6 15 8 NNE 1017,9 19 0 0,0
17.10.2018 06:00:00 13,1 11,0 11 6 16 8 NNE 1017,6 19 0 0,0
17.10.2018 05:00:00 14,1 10,3 7 4 9 5 N 1018,1 20 0 0,0
17.10.2018 04:00:00 14,3 10,3 5 3 16 9 ENE 1018,3 20 0 0,0
17.10.2018 03:00:00 14,3 10,3 15 8 28 15 E 1018,5 20 0 0,0
17.10.2018 02:00:00 14,0 11,1 23 13 35 19 ENE 1018,8 20 0 -
17.10.2018 01:00:00 14,0 11,1 26 14 36 20 NE 1018,9 20 0 0,0
17.10.2018 00:00:00 14,1 11,2 26 14 35 19 NE 1019,2 20 0 0,0
16.10.2018 23:00:00 13,8 11,4 27 14 37 20 NE 1018,9 20 0 0,0
16.10.2018 22:00:00 14,1 12,0 27 14 35 19 NE 1018,8 17 0 0,0
16.10.2018 21:00:00 14,6 12,3 24 13 36 19 NE 1018,5 15 0 0,0
16.10.2018 20:00:00 14,1 12,5 26 14 31 17 NE 1018,1 11 47 -
16.10.2018 19:00:00 15,3 13,4 23 12 34 18 NNE 1017,7 7 54 0,0
16.10.2018 18:00:00 16,0 13,7 21 11 37 20 NNE 1017,6 10 60 0,0
16.10.2018 17:00:00 15,5 13,4 25 13 34 18 NNE 1017,5 10 60 0,0
16.10.2018 16:00:00 16,2 12,5 16 9 25 13 NNE 1017,3 10 60 0,0
16.10.2018 15:00:00 16,8 12,3 12 7 17 9 NNE 1017,4 10 60 0,0
16.10.2018 14:00:00 16,4 12,1 9 5 13 7 NNE 1017,6 12 58 -
16.10.2018 13:00:00 16,5 11,9 9 5 13 7 NE 1017,4 13 60 0,0
16.10.2018 12:00:00 15,9 11,4 10 5 16 9 NE 1017,1 12 60 0,0
16.10.2018 11:00:00 15,4 10,4 10 5 15 8 NE 1016,7 20 57 0,0
16.10.2018 10:00:00 15,3 10,0 10 6 19 11 ENE 1016,0 20 34 0,0
16.10.2018 09:00:00 14,6 10,4 13 7 20 11 ENE 1015,0 20 0 0,0
16.10.2018 08:00:00 14,0 11,6 15 8 19 11 ENE 1014,5 20 0 -
16.10.2018 07:00:00 13,7 12,4 10 5 13 7 NNE 1013,9 7 0 0,0
16.10.2018 06:00:00 14,1 13,0 2 1 5 3 NNW 1013,5 18 0 0,0
16.10.2018 05:00:00 14,4 13,5 5 3 7 4 W 1013,1 1,7 0 0,0
16.10.2018 04:00:00 14,2 13,1 5 3 7 4 SE 1013,0 20 0 0,0
16.10.2018 03:00:00 14,3 12,8 4 2 9 5 WSW 1012,6 12 0 0,0
16.10.2018 02:00:00 14,5 12,8 5 3 11 6 WSW 1012,7 14 0 -
16.10.2018 01:00:00 14,9 13,0 10 5 13 7 E 1011,9 20 0 0,0
16.10.2018 00:00:00 14,7 13,3 11 6 13 7 ENE 1011,7 20 0 0,0
15.10.2018 23:00:00 14,8 13,9 5 3 9 5 NW 1011,1 9 0 0,0
15.10.2018 22:00:00 15,0 13,7 6 3 9 5 N - - 0 0,0
15.10.2018 21:00:00 15,5 14,0 8 4 14 8 E 1009,3 13 0 0,0
15.10.2018 20:00:00 15,2 13,9 11 6 18 10 S - - 0 -
15.10.2018 19:00:00 16,5 14,5 11 6 17 9 SE 1007,4 13 25 0,0
15.10.2018 18:00:00 17,0 15,2 10 5 22 12 E 1006,2 15 59 0,0
15.10.2018 17:00:00 15,7 14,6 16 9 26 14 NE 1005,5 3,4 22 0,0
15.10.2018 16:00:00 16,5 15,3 4 2 19 10 ESE 1005,0 5 9 0,0
15.10.2018 15:00:00 16,7 15,9 11 6 42 23 SSE 1004,2 6 47 0,0
15.10.2018 14:00:00 15,7 15,1 22 12 44 24 SE 1003,2 1,1 0 -
15.10.2018 13:00:00 14,8 14,1 21 11 38 21 SE 1002,7 0,1 0 0,2
15.10.2018 12:00:00 14,6 13,9 19 11 41 22 S 1001,9 0,7 0 0,6
15.10.2018 11:00:00 14,3 13,7 22 12 37 20 S 1001,0 0,8 0 2,0
15.10.2018 10:00:00 14,2 13,6 28 15 43 23 SSW 1000,5 0,1 0 0,6
15.10.2018 09:00:00 14,0 13,4 29 16 43 23 WSW 1000,0 0,1 0 1,8
15.10.2018 08:00:00 13,8 13,2 36 19 65 35 SW 1000,0 0,1 0 -
15.10.2018 07:00:00 13,6 12,8 44 24 62 34 WSW 999,5 0,2 0 0,0
15.10.2018 06:00:00 13,5 12,7 41 22 74 40 W 1000,0 7 0 0,0
15.10.2018 05:00:00 14,3 13,7 43 23 93 50 WSW 1001,3 2,1 0 4,8
15.10.2018 04:00:00 12,9 12,3 55 30 92 50 S 1000,5 0,1 0 5,0
15.10.2018 03:00:00 12,9 12,1 48 26 93 50 S 1002,3 0,1 0 2,4
15.10.2018 02:00:00 12,5 11,7 50 27 85 46 S 1004,0 0,1 0 -
15.10.2018 01:00:00 12,3 11,0 39 21 82 45 SSW 1006,1 3,8 0 0,4
15.10.2018 00:00:00 12,6 10,5 31 17 69 37 SSW 1008,0 11 0 0,0
14.10.2018 23:00:00 13,0 9,3 35 19 57 31 SSW 1009,2 16 0 0,0
14.10.2018 22:00:00 12,8 8,5 40 22 52 28 SW 1010,7 20 0 0,0
14.10.2018 21:00:00 12,6 9,0 35 19 42 23 SW 1011,3 19 0 0,0
14.10.2018 20:00:00 12,9 9,7 24 13 31 17 SW 1011,8 20 1 -
14.10.2018 19:00:00 14,2 10,4 11 6 14 8 SW 1012,3 18 8 0,0
14.10.2018 18:00:00 14,1 9,6 6 3 15 8 W 1012,6 16 24 0,0
14.10.2018 17:00:00 14,9 9,7 11 6 24 13 N 1012,9 12 44 0,0
14.10.2018 16:00:00 13,9 9,7 19 10 33 18 N 1013,8 5 57 0,0

tt = temperature
td = dewpoint
ff = wind speed
fx = gusts
dd = wind direction
ppp = reduced air pressure
vv = visibility
sd = sunshine duration
rr = precipitation

Next stations